| time (UTC) | temp F | wind direction | speed MPH | gust MPH | rain 1hr in | rain 24hr in | rain mn in | humidity % | barometer mb |
| 20260505193052 | 58 | 5 | 0.0 | 6.0 | 0.00 | 0.49 | 0.49 | 71 | 1015.5 |
| 20260505191554 | 58 | 0 | 1.0 | 4.0 | 0.00 | 0.49 | 0.49 | 70 | 1015.3 |
| 20260505190100 | 58 | 0 | 0.0 | 4.0 | 0.00 | 0.49 | 0.49 | 69 | 1015.2 |
| 20260505184550 | 58 | 0 | 0.0 | 6.0 | 0.00 | 0.49 | 0.49 | 68 | 1015.2 |
| 20260505183055 | 58 | 0 | 0.0 | 3.0 | 0.00 | 0.49 | 0.49 | 67 | 1015.2 |
| 20260505181554 | 59 | 0 | 1.0 | 4.0 | 0.00 | 0.49 | 0.49 | 67 | 1015.1 |
| 20260505174552 | 61 | 0 | 0.0 | 6.0 | 0.00 | 0.49 | 0.49 | 64 | 1015.0 |
| 20260505173053 | 62 | 0 | 0.0 | 2.0 | 0.00 | 0.49 | 0.49 | 62 | 1014.9 |
| 20260505171555 | 63 | 0 | 0.0 | 4.0 | 0.00 | 0.49 | 0.49 | 61 | 1015.0 |
| 20260505170053 | 63 | 0 | 1.0 | 4.0 | 0.00 | 0.49 | 0.49 | 60 | 1015.1 |
| 20260505164600 | 64 | 215 | 1.0 | 12.0 | 0.00 | 0.49 | 0.49 | 59 | 1014.9 |
| 20260505163053 | 65 | 128 | 2.0 | 7.0 | 0.00 | 0.49 | 0.49 | 56 | 1014.9 |
| 20260505161558 | 66 | 153 | 3.0 | 8.0 | 0.00 | 0.49 | 0.49 | 54 | 1014.8 |
| 20260505153054 | 67 | 186 | 4.0 | 12.0 | 0.00 | 0.49 | 0.49 | 54 | 1014.8 |
| 20260505151550 | 68 | 58 | 4.0 | 16.0 | 0.00 | 0.49 | 0.49 | 52 | 1014.6 |
| 20260505124600 | 66 | 130 | 5.0 | 14.0 | 0.00 | 0.49 | 0.49 | 65 | 1015.0 |
| 20260505123050 | 66 | 180 | 1.0 | 5.0 | 0.00 | 0.49 | 0.49 | 72 | 1015.1 |
| 20260505121553 | 65 | 0 | 2.0 | 7.0 | 0.00 | 0.49 | 0.49 | 78 | 1015.5 |
| 20260505120053 | 63 | 0 | 1.0 | 6.0 | 0.00 | 0.49 | 0.49 | 78 | 1015.5 |
| 20260505114557 | 62 | 0 | 2.0 | 6.0 | 0.00 | 0.49 | 0.49 | 82 | 1015.7 |
| 20260505113055 | 61 | 148 | 3.0 | 7.0 | 0.00 | 0.49 | 0.49 | 85 | 1015.7 |
| 20260505111554 | 61 | 0 | 1.0 | 4.0 | 0.00 | 0.49 | 0.49 | 89 | 1015.5 |
| 20260505101550 | 56 | 0 | 0.0 | 2.0 | 0.06 | 0.48 | 0.48 | 91 | 1015.9 |
| 20260505100050 | 55 | 0 | 0.0 | 2.0 | 0.11 | 0.48 | 0.48 | 91 | 1016.1 |
| 20260505094553 | 54 | 355 | 2.0 | 4.0 | 0.13 | 0.48 | 0.48 | 91 | 1015.8 |
| 20260505093051 | 54 | 0 | 0.0 | 3.0 | 0.11 | 0.45 | 0.45 | 92 | 1015.8 |
| 20260505091605 | 54 | 0 | 0.0 | 2.0 | 0.09 | 0.42 | 0.42 | 91 | 1016.1 |
| 20260505090052 | 53 | 0 | 0.0 | 3.0 | 0.06 | 0.37 | 0.37 | 91 | 1015.8 |
| 20260505084552 | 53 | 0 | 0.0 | 3.0 | 0.07 | 0.34 | 0.34 | 91 | 1015.7 |
| 20260505083053 | 53 | 346 | 1.0 | 8.0 | 0.07 | 0.33 | 0.33 | 91 | 1015.6 |
| 20260505081552 | 53 | 0 | 1.0 | 4.0 | 0.06 | 0.33 | 0.33 | 91 | 1015.8 |
| 20260505080104 | 53 | 36 | 1.0 | 3.0 | 0.03 | 0.30 | 0.30 | 91 | 1015.7 |
| 20260505074558 | 53 | 0 | 0.0 | 2.0 | 0.00 | 0.27 | 0.27 | 91 | 1015.6 |
| 20260505073100 | 53 | 0 | 0.0 | 2.0 | 0.00 | 0.26 | 0.26 | 91 | 1015.3 |
| 20260505071555 | 53 | 0 | 0.0 | 1.0 | 0.00 | 0.26 | 0.26 | 91 | 1015.4 |
| 20260505070101 | 52 | 0 | 0.0 | 3.0 | 0.02 | 0.26 | 0.26 | 91 | 1015.6 |
| 20260505064600 | 52 | 5 | 0.0 | 3.0 | 0.05 | 0.26 | 0.26 | 91 | 1015.7 |
| 20260505063114 | 52 | 0 | 0.0 | 2.0 | 0.08 | 0.26 | 0.26 | 91 | 1015.9 |
| 20260505061607 | 52 | 0 | 0.0 | 1.0 | 0.11 | 0.25 | 0.25 | 91 | 1015.9 |
| 20260505060059 | 52 | 0 | 0.0 | 1.0 | 0.14 | 0.24 | 0.24 | 91 | 1016.0 |
| 20260505054609 | 51 | 0 | 0.0 | 3.0 | 0.15 | 0.21 | 0.21 | 90 | 1016.2 |
| 20260505053101 | 51 | 21 | 1.0 | 3.0 | 0.12 | 0.18 | 0.18 | 90 | 1016.0 |
| 20260505051554 | 51 | 21 | 1.0 | 3.0 | 0.09 | 0.14 | 0.14 | 90 | 1015.7 |
| 20260505041559 | 51 | 334 | 1.0 | 4.0 | 0.02 | 0.05 | 0.05 | 88 | 1015.9 |
| 20260505040057 | 51 | 360 | 1.0 | 3.0 | 0.03 | 0.05 | 0.05 | 87 | 1016.0 |
| 20260505034558 | 52 | 0 | 0.0 | 3.0 | 0.03 | 0.05 | 0.05 | 87 | 1016.0 |
| 20260505033052 | 52 | 344 | 0.0 | 3.0 | 0.03 | 0.04 | 0.04 | 86 | 1016.3 |
| 20260505031603 | 52 | 17 | 1.0 | 4.0 | 0.03 | 0.03 | 0.03 | 85 | 1016.5 |
| 20260505030054 | 52 | 360 | 1.0 | 6.0 | 0.02 | 0.02 | 0.02 | 84 | 1016.7 |
| 20260505024559 | 52 | 5 | 2.0 | 5.0 | 0.01 | 0.01 | 0.01 | 82 | 1016.8 |
| 20260505023054 | 53 | 337 | 2.0 | 5.0 | 0.00 | 0.00 | 0.00 | 79 | 1016.9 |
| 20260505021555 | 54 | 0 | 1.0 | 5.0 | 0.00 | 0.00 | 0.00 | 76 | 1017.1 |
| 20260505020054 | 54 | 15 | 1.0 | 4.0 | 0.00 | 0.00 | 0.00 | 75 | 1017.3 |
| 20260505014607 | 54 | 360 | 1.0 | 4.0 | 0.00 | 0.00 | 0.00 | 74 | 1017.4 |
| 20260505013051 | 54 | 11 | 2.0 | 5.0 | 0.00 | 0.00 | 0.00 | 75 | 1017.5 |
| 20260505011605 | 54 | 15 | 0.0 | 4.0 | 0.00 | 0.00 | 0.00 | 74 | 1017.5 |
| 20260505010054 | 54 | 22 | 2.0 | 4.0 | 0.00 | 0.00 | 0.00 | 74 | 1017.7 |
| 20260505004555 | 54 | 25 | 2.0 | 4.0 | 0.00 | 0.00 | 0.00 | 73 | 1018.1 |
| 20260505003053 | 55 | 9 | 1.0 | 4.0 | 0.00 | 0.00 | 0.00 | 73 | 1018.4 |
| 20260505001550 | 54 | 355 | 1.0 | 7.0 | 0.00 | 0.00 | 0.00 | 72 | 1018.7 |
| 20260505000105 | 54 | 13 | 1.0 | 4.0 | 0.00 | 0.00 | 0.00 | 71 | 1018.8 |
| 20260504234552 | 55 | 11 | 1.0 | 4.0 | 0.00 | 0.00 | 0.00 | 70 | 1018.9 |
| 20260504233107 | 54 | 360 | 1.0 | 4.0 | 0.00 | 0.00 | 0.00 | 70 | 1019.1 |
| 20260504231551 | 54 | 0 | 2.0 | 4.0 | 0.00 | 0.00 | 0.00 | 69 | 1019.3 |
| 20260504230053 | 54 | 13 | 2.0 | 5.0 | 0.00 | 0.00 | 0.00 | 68 | 1019.5 |
| 20260504224602 | 54 | 333 | 3.0 | 4.0 | 0.00 | 0.00 | 0.00 | 69 | 1019.7 |
| 20260504223119 | 55 | 335 | 1.0 | 5.0 | 0.00 | 0.00 | 0.00 | 69 | 1019.6 |
| 20260504221552 | 55 | 98 | 2.0 | 3.0 | 0.00 | 0.00 | 0.00 | 69 | 1019.7 |
| 20260504220053 | 55 | 5 | 1.0 | 4.0 | 0.00 | 0.00 | 0.00 | 69 | 1019.8 |
| 20260504214555 | 56 | 19 | 1.0 | 2.0 | 0.00 | 0.00 | 0.00 | 69 | 1019.8 |
| 20260504213104 | 56 | 0 | 0.0 | 2.0 | 0.00 | 0.00 | 0.00 | 71 | 1019.9 |
| 20260504211553 | 57 | 12 | 1.0 | 3.0 | 0.00 | 0.00 | 0.00 | 71 | 1019.9 |
| 20260504210101 | 57 | 0 | 0.0 | 3.0 | 0.00 | 0.00 | 0.00 | 71 | 1020.1 |
| 20260504204555 | 57 | 0 | 0.0 | 4.0 | 0.00 | 0.00 | 0.00 | 70 | 1020.1 |
| 20260504203108 | 58 | 5 | 1.0 | 3.0 | 0.00 | 0.00 | 0.00 | 69 | 1020.1 |
| 20260504201557 | 59 | 0 | 0.0 | 2.0 | 0.00 | 0.00 | 0.00 | 67 | 1020.2 |
| 20260504200106 | 59 | 0 | 0.0 | 2.0 | 0.00 | 0.00 | 0.00 | 66 | 1020.2 |
| 20260504194553 | 60 | 0 | 0.0 | 2.0 | 0.00 | 0.00 | 0.00 | 65 | 1020.0 |